CZ-4B DEB, 43660

Orbit data source: Space-Track

CZ-4B DEB, 43660 is space debris in SSO originally from a launch on Wed, 24 Oct 2018 UTC launched from the Taiyaun Space Center, China (TSC). Debris objects in space refer to the collection of defunct objects orbiting the Earth. Examples of debris include non-operational satellites, rocket bodies, and fragments generated from explosions, collisions, or faulty payload assembly.

Loading next visibility...
Identifier
43660, 2018-081D
Orbit
SSO
Last TLE update
10 hours ago
Origin
Manufacturer
SAST
Mission
Spacecraft
Bus & Motor
Unknown
Mass
Unknown
Launch date (UTC)
2018-10-24 (7 years ago)
Launch vehicle
Unknown
Launch site
Taiyaun Space Center, China (TSC)
Object type
Payload
Rocket body
Debris
Shape & HBR
Unknown
Radar Cross Section
Small (<0.1 m²)

Expand to show TLE details & history

TLE from 10 hours ago
0 CZ-4B DEB
1 43660U 18081D   25191.56165912  .00000076  00000-0  96662-4 0  9996
2 43660  99.1447 221.1314 0012921 199.1553 160.9121 13.90478802340433
Epoch: 2025-07-10T13:28Z
TLE epoch observation values (Epoch: 2025-07-10T13:28:47.347Z)
Latitude
-0.00009°
Longitude
90.20797°
Altitude
938.736 km
Speed
7.378 km/s
True Right ascension
14h 44m 31s
True Declination
0° 00' 00"
Sunlit
Object was in daylight at epoch
Visualization orbit readout
Latitude
-25.64596°
Longitude
95.03678°
Altitude
943.272 km
Speed
7.376 km/s
Apparent Right ascension
18h 14m 47s
Apparent Declination
-56° 31' 46"
Sunlit
Object is in full shadow
Visualization observer readout
Local Sidereal Time
11:59:08
Azimuth
138.212° SSE
Elevation
-34.341°
Doppler factor
1
Orbital elements
Apogee altitude
933.608 km
Perigee altitude
914.737 km
Semi-major axis
7,302.31 km
Eccentricity
0.00129
Inclination
99.1447°
RAAN
221.1314°
Arg. of periapsis
199.1553°
True anomaly
Unknown
Mean anomaly
160.9121°
Eccentric anomaly
Unknown
Mean motion
3.47819 °/min
Orbital period
103.5 mins
BSTAR
0.000096662
Loading maneuver chart data...
Loading SW <> Apogee altitude chart data...
Loading historical data...
Loading historical data...
Loading historical data...
Loading historical data...
Loading historical data...
Loading historical data...
Loading historical data...

CZ-4B DEB Visibility forecast

Observer location: undefined°, undefined°

Span
Click to sort rows by Start time (UTC) header in descending order
Start Az.
Max El. time (UTC)
Max El. Az.
Max El.
End time (UTC)
End Az.
9 mins2025-07-11 01:42:01.846Z152.397° SSE2025-07-11 01:46:01.846Z68.602° E43.428°2025-07-11 01:51:01.846Z351.464° N
5 mins2025-07-11 03:27:01.846Z249.756° W2025-07-11 03:29:01.846Z273.003° WNW15.294°2025-07-11 03:32:01.846Z304.376° NW
9 mins2025-07-11 14:16:01.846Z36.214° NE2025-07-11 14:20:01.846Z97.963° ESE33.232°2025-07-11 14:25:01.846Z166.046° S
7 mins2025-07-11 15:59:01.846Z338.87° N2025-07-11 16:02:01.846Z295.534° NW25.811°2025-07-11 16:06:01.846Z243.34° WSW
|